Weather Roundup
Issued by NWS Chicago, IL

Home | Current Version | Previous Version | Text Only | Print | Product List | Glossary Off
Versions: 1 2 3 4 5 6 7 8 9 10 11 12 13 14 15 16 17 18 19 20 21 22 23 24 25 26 27 28 29 30 31 32 33 34 35 36 37 38 39 40 41 42 43 44 45 46 47 48 49 50

000
NZUS59 KLOT 231608
HRRLOT

CHICAGO AREA WEATHER ROUNDUP
NATIONAL WEATHER SERVICE CHICAGO/ROMEOVILLE IL
1000 AM CST THU FEB 23 2017

NOTE: "FAIR" INDICATES FEW OR NO CLOUDS BELOW 12,000 FEET WITH NO
SIGNIFICANT WEATHER AND/OR OBSTRUCTIONS TO VISIBILITY.

* THESE STATIONS ARE NOT UNDER NWS QUALITY CONTROL. THEY ALSO MAY NOT
  REPORT WEATHER SUCH AS PRECIPITATION OR FOG.

ILZ005-006-012>014-019>023-231700-
NORTHEAST ILLINOIS

CITY           SKY/WX    TMP DP  RH WIND       PRES   REMARKS
OHARE          CLOUDY    50  40  68 NE15      29.79S
MIDWAY         PTSUNNY   51  40  65 NE17      29.80R
AURORA         PTSUNNY   52  42  69 E7        29.80R
LANSING*       MOSUNNY   51  44  77 N12G18    29.81R
JOLIET*        MOSUNNY   54  45  70 NE6       29.80R
WAUKEGAN       CLOUDY    41  37  86 NE12G22   29.80R
DUPAGE AIRPORT PTSUNNY   50  41  71 E8        29.79R
WHEELING       CLOUDY    42  36  79 NE16      29.83R
KANKAKEE*      SUNNY     55  47  76 NE7       29.78F
MORRIS*        MOSUNNY   51  44  76 N3        29.80R
LEWIS AIRPORT* MOSUNNY   53  45  76 E8        29.80R
NORTHERLY ISL    N/A     44  39  82 N7          N/A
$$

WIZ051-052-058>065-066-070>072-231700-
SOUTHEAST WISCONSIN

CITY           SKY/WX    TMP DP  RH WIND       PRES   REMARKS
MILWAUKEE      CLOUDY    43  38  82 NE9       29.82R
KENOSHA*       CLOUDY    42  38  85 NE16      29.80S FOG
RACINE*        CLOUDY    42  36  79 N13G21    29.85R
WAUKESHA       CLOUDY    41  37  87 N7        29.81R
WEST BEND      CLOUDY    41  36  81 NE9       29.81R
$$

INZ001>003-010>013-019-020-231700-
NORTHWEST INDIANA

CITY           SKY/WX    TMP DP  RH WIND       PRES   REMARKS
GARY*          MOSUNNY   54  41  62 N10       29.81R
MICHIGAN CITY* NOT AVBL
RENSSELAER*    NOT AVBL
VALPARAISO     SUNNY     54  45  71 N9        29.79R
$$

LMZ740>746-231700-
SOUTHERN LAKE MICHIGAN

STATION/POSITION TIME  SKY/WX   TEMP WIND        PRES    VSBY
                                AIR  DIR/SP/G
                 (UTC)          (F)  (DEG/KT/KT) (MB)    (MI)
HARRISON CRIB    1540            43   20/ 12/ 13   N/A
BURNHAM HARBOR   1600            44   10/  9/ 12   N/A
CALUMET HARBOR   1548            45  350/ 11/ 14 1008.9R
BURNS HARBOR     1540            42   20/  7/  8 1010.2R
MICHIGAN CITY    1540            41  360/  5/  6   N/A
$$

ABBREVIATIONS USED IN REMARKS
   TC - TEMPERATURE IN CELSIUS
  WCI - WIND CHILL INDEX
   HX - HEAT INDEX
  VSB - VISIBILITY
$$




USA.gov is the U.S. government's official web portal to all federal, state and local government web resources and services.